Time,TemperatureF,DewpointF,PressureIn,WindDirection,WindDirectionDegrees,WindSpeedMPH,WindSpeedGustMPH,Humidity,HourlyPrecipIn,Conditions,Clouds,dailyrainin,SoftwareType,DateUTC
2016-09-30 00:04:00,62.0,56.0,-100.00,ENE,70,11.0,13.0,80,-99.99,,,-99.99,,2016-09-30 04:04:00,
2016-09-30 00:13:00,62.0,56.0,-100.00,ENE,70,9.0,13.0,81,-99.99,,,-99.99,,2016-09-30 04:13:00,
2016-09-30 00:23:00,62.0,56.0,-100.00,ENE,70,9.0,-999.0,80,-99.99,,,-99.99,,2016-09-30 04:23:00,
2016-09-30 01:12:00,62.0,55.0,-100.00,ENE,70,11.0,-999.0,76,-99.99,,,-99.99,,2016-09-30 05:12:00,
2016-09-30 01:46:00,62.0,55.0,-100.00,ENE,70,11.0,13.0,76,-99.99,,,-99.99,,2016-09-30 05:46:00,
2016-09-30 02:03:00,62.0,55.0,-100.00,ENE,70,11.0,13.0,76,-99.99,,,-99.99,,2016-09-30 06:03:00,
2016-09-30 02:13:00,63.0,55.0,-100.00,ENE,70,11.0,16.0,76,-99.99,,,-99.99,,2016-09-30 06:13:00,
2016-09-30 02:23:00,63.0,56.0,-100.00,East,80,13.0,18.0,78,-99.99,,,-99.99,,2016-09-30 06:23:00,
2016-09-30 02:43:00,63.0,56.0,-100.00,East,90,16.0,22.0,78,-99.99,,,-99.99,,2016-09-30 06:43:00,
2016-09-30 02:53:00,63.0,57.0,-100.00,East,80,18.0,22.0,80,-99.99,,,-99.99,,2016-09-30 06:53:00,
2016-09-30 03:23:00,63.0,58.0,-100.00,East,80,16.0,-999.0,83,-99.99,,,-99.99,,2016-09-30 07:23:00,
2016-09-30 03:43:00,62.0,58.0,-100.00,East,90,16.0,22.0,85,-99.99,,,-99.99,,2016-09-30 07:43:00,
2016-09-30 03:53:00,62.0,58.0,-100.00,East,80,16.0,22.0,86,-99.99,,,-99.99,,2016-09-30 07:53:00,
2016-09-30 04:05:00,62.0,59.0,-100.00,East,80,16.0,-999.0,87,-99.99,,,-99.99,,2016-09-30 08:05:00,
2016-09-30 04:23:00,62.0,59.0,-100.00,East,80,16.0,20.0,90,-99.99,,,-99.99,,2016-09-30 08:23:00,
2016-09-30 05:12:00,62.0,59.0,-100.00,East,80,18.0,22.0,87,-99.99,,,-99.99,,2016-09-30 09:12:00,
2016-09-30 06:03:00,62.0,59.0,-100.00,ENE,70,16.0,20.0,92,-99.99,,,-99.99,,2016-09-30 10:03:00,
2016-09-30 06:14:00,61.0,59.0,-100.00,ENE,70,16.0,18.0,92,-99.99,,,-99.99,,2016-09-30 10:14:00,
2016-09-30 06:26:00,61.0,59.0,-100.00,ENE,70,16.0,18.0,93,-99.99,,,-99.99,,2016-09-30 10:26:00,
2016-09-30 06:34:00,61.0,59.0,-100.00,ENE,70,16.0,-999.0,93,-99.99,,,-99.99,,2016-09-30 10:34:00,
2016-09-30 06:56:00,61.0,59.0,-100.00,ENE,70,13.0,-999.0,95,-99.99,,,-99.99,,2016-09-30 10:56:00,
2016-09-30 07:04:00,61.0,59.0,-100.00,ENE,70,13.0,20.0,95,-99.99,,,-99.99,,2016-09-30 11:04:00,
2016-09-30 07:13:00,61.0,60.0,-100.00,ENE,70,16.0,20.0,95,-99.99,,,-99.99,,2016-09-30 11:13:00,
2016-09-30 07:22:00,61.0,59.0,-100.00,ENE,70,16.0,-999.0,95,-99.99,,,-99.99,,2016-09-30 11:22:00,
2016-09-30 08:05:00,61.0,58.0,-100.00,East,80,16.0,20.0,91,-99.99,,,-99.99,,2016-09-30 12:05:00,
2016-09-30 08:13:00,61.0,58.0,-100.00,ENE,70,16.0,20.0,91,-99.99,,,-99.99,,2016-09-30 12:13:00,
2016-09-30 08:23:00,61.0,58.0,-100.00,ENE,70,16.0,20.0,91,-99.99,,,-99.99,,2016-09-30 12:23:00,
2016-09-30 08:54:00,61.0,58.0,-100.00,ENE,70,18.0,25.0,91,-99.99,,,-99.99,,2016-09-30 12:54:00,
2016-09-30 09:03:00,61.0,58.0,-100.00,ENE,70,18.0,22.0,91,-99.99,,,-99.99,,2016-09-30 13:03:00,
2016-09-30 09:13:00,61.0,59.0,-100.00,ENE,70,18.0,22.0,92,-99.99,,,-99.99,,2016-09-30 13:13:00,
2016-09-30 10:03:00,61.0,59.0,-100.00,ENE,70,18.0,25.0,92,-99.99,,,-99.99,,2016-09-30 14:03:00,
2016-09-30 10:13:00,61.0,58.0,-100.00,ENE,70,20.0,25.0,91,-99.99,,,-99.99,,2016-09-30 14:13:00,
2016-09-30 10:23:00,61.0,58.0,-100.00,East,80,18.0,25.0,90,-99.99,,,-99.99,,2016-09-30 14:23:00,
2016-09-30 10:33:00,61.0,58.0,-100.00,East,80,20.0,27.0,90,-99.99,,,-99.99,,2016-09-30 14:33:00,
2016-09-30 10:43:00,61.0,58.0,-100.00,East,80,20.0,27.0,90,-99.99,,,-99.99,,2016-09-30 14:43:00,
2016-09-30 10:54:00,61.0,58.0,-100.00,ENE,70,22.0,31.0,89,-99.99,,,-99.99,,2016-09-30 14:54:00,
2016-09-30 11:03:00,61.0,58.0,-100.00,East,80,20.0,-999.0,89,-99.99,,,-99.99,,2016-09-30 15:03:00,
2016-09-30 11:12:00,62.0,58.0,-100.00,East,80,20.0,27.0,88,-99.99,,,-99.99,,2016-09-30 15:12:00,
2016-09-30 11:23:00,62.0,58.0,-100.00,East,90,20.0,29.0,87,-99.99,,,-99.99,,2016-09-30 15:23:00,
2016-09-30 12:14:00,62.0,58.0,-100.00,East,90,22.0,29.0,87,-99.99,,,-99.99,,2016-09-30 16:14:00,
2016-09-30 13:05:00,62.0,59.0,-100.00,East,90,20.0,-999.0,89,-99.99,,,-99.99,,2016-09-30 17:05:00,
2016-09-30 13:26:00,63.0,59.0,-100.00,East,90,18.0,25.0,88,-99.99,,,-99.99,,2016-09-30 17:26:00,
2016-09-30 13:36:00,63.0,58.0,-100.00,East,90,20.0,25.0,84,-99.99,,,-99.99,,2016-09-30 17:36:00,
2016-09-30 14:04:00,63.0,57.0,-100.00,East,80,20.0,25.0,80,-99.99,,,-99.99,,2016-09-30 18:04:00,
2016-09-30 14:13:00,63.0,57.0,-100.00,East,80,20.0,25.0,80,-99.99,,,-99.99,,2016-09-30 18:13:00,
2016-09-30 15:13:00,65.0,57.0,-100.00,East,90,20.0,27.0,76,-99.99,,,-99.99,,2016-09-30 19:13:00,
2016-09-30 15:23:00,65.0,57.0,-100.00,East,90,20.0,27.0,76,-99.99,,,-99.99,,2016-09-30 19:23:00,
2016-09-30 15:34:00,65.0,57.0,-100.00,East,80,22.0,29.0,76,-99.99,,,-99.99,,2016-09-30 19:34:00,
2016-09-30 15:44:00,65.0,57.0,-100.00,East,80,20.0,27.0,76,-99.99,,,-99.99,,2016-09-30 19:44:00,
2016-09-30 15:54:00,65.0,57.0,-100.00,East,90,20.0,29.0,75,-99.99,,,-99.99,,2016-09-30 19:54:00,
2016-09-30 16:03:00,65.0,57.0,-100.00,East,90,20.0,27.0,75,-99.99,,,-99.99,,2016-09-30 20:03:00,
2016-09-30 16:23:00,64.0,57.0,-100.00,East,90,20.0,27.0,77,-99.99,,,-99.99,,2016-09-30 20:23:00,